User: anonymous   Login
Location: Columbia
(38.9520°N, 92.3340°W)
Time: 02:45:17
(UTC-05:00)
Language:

Meteor 1-4 Rocket - Orbit

View from above orbital plane
View from above orbital plane
View from above satellite
View from above satellite

Ground track
Ground track

The orbit data is extracted from the following two-line orbital elements,

1  4394U 70037B   17228.91911645 +.00000729 +00000-0 +24918-4 0  9999
2  4394 081.2433 303.5296 0039473 276.6963 082.9780 15.28174473574514
Epoch (UTC): 16 August 2017 22:03:31
Eccentricity: 0.0039473
inclination: 81.2433°
perigee height: 454 km
apogee height: 508 km
right ascension of ascending node: 303.5296°
argument of perigee: 276.6963°
revolutions per day: 15.28174473
mean anomaly at epoch: 82.9780°
orbit number at epoch: 57451

The dashed part of the orbit path shows where the satellite is in the earth's shadow,  

DLR